MORDOVIA-IOT (RS50S)

Last updated on Thu Oct 30 2025 00:03:10 GMT+0000 (Coordinated Universal Time)

1 61765U 24199AG 25302.52438093 .00093190 00000+0 12855-2 0 9990 2 61765 97.3232 174.6017 0008838 36.7745 323.4115 15.56841722 98982
UTC large
Height (km)
Speed (km/s)
/
Latitude / Longitude
Inclination (degrees)
Orbital Period (minutes)
Azimuth
Elevation
Range (km)
Doppler Factor

Next 0 passes for location: London (51.5072 / 0.1276)

Sorry there are no passes over London.